sat.trackr.live / text

‹ back to catalog

LEMUR-2-MYNAMEISJEFF

NORAD 62712 · 2025-009DH

PAYLOAD ACTIVE UNKNOWN

§ Identity

Operator
Country
US
Launch date
2025-01-14
Launch site
AFWTR
Launch vehicle
Mass (kg)
RCS (m²)

Purposes: earth_obs

External: N2YO · Heavens-Above · Gunter

§ Orbital elements

Epoch: 2026-09-19T11:17:20.746464Z

Period
95.68 min
Inclination
97.7231°
Eccentricity
0.0002143
Mean motion
15.05069080 rev/d
Perigee alt
549.8 km
Apogee alt
552.8 km
Semi-major
6,929.4 km
B*
3.3769e-4
RAAN
345.5136°
Arg perigee
192.0283°
Mean anomaly
168.0893°
Rev number
9,180

§ Raw data

LEMUR-2-MYNAMEISJEFF1 62712U 25009DH  26262.47037901  .00004739  00000+0  33769-3 0  99962 62712  97.7231 345.5136 0002143 192.0283 168.0893 15.05069080 91808

JSON: /api/v1/satellites/62712 · /tle

For live sub-satellite position, see the globe view (requires WebGL).

§ Visibility from observer

Set your observer location to see the next 7 days of passes ≥ 10°. The values pass through the URL so the page stays shareable.

No JS? Fill the form by hand. The geolocation button needs JavaScript.